Simultaneous Nadir Overpasses (SNOs) Predictions

Prediction of SNOs between LANDSAT-8 and METOP-B Satellite Orbit:

Table of predicted SNOs for the next 14.0 days since TLE Epoch: 12/12/2020
Index Date (LANDSAT-8) Time (LANDSAT-8) Lat,Lon (LANDSAT-8) SZA (LANDSAT-8 ) Date (METOP-B) Time (METOP-B) Lat,Lon (METOP-B) SZA (METOP-B ) Distance(km) Time Diff (sec)
1 12/14/2020 02:10:24 -81.12, 7.18 73.62 12/14/2020 02:09:49 -81.12, 7.28 73.62 1.79 35
2 12/14/2020 02:59:49 81.14, 175.26 106.45 12/14/2020 03:00:28 81.15, 175.43 106.49 3.01 39
3 12/16/2020 21:44:39 -81.11, 73.60 73.53 12/16/2020 21:44:12 -81.11, 73.57 73.54 0.59 27
4 12/16/2020 22:34:04 81.14,-118.35 106.54 12/16/2020 22:34:51 81.14,-118.30 106.56 0.89 47
5 12/19/2020 17:18:53 -81.11, 139.98 73.50 12/19/2020 17:18:34 -81.11, 139.83 73.52 2.52 19
6 12/19/2020 18:08:18 81.14, -52.00 106.56 12/19/2020 18:09:13 81.14, -52.05 106.58 0.90 55
7 12/22/2020 12:53:07 -81.13,-153.32 73.49 12/22/2020 12:52:55 -81.13,-153.17 73.48 2.66 12
8 12/22/2020 13:42:32 81.15, 14.68 106.56 12/22/2020 13:43:35 81.14, 14.55 106.57 2.28 63
9 12/25/2020 08:27:22 -81.12, -87.03 73.60 12/25/2020 08:27:18 -81.12, -86.94 73.59 1.70 4



Historial Predications of SNOs between LANDSAT-8 and METOP-B
